Weather in Popivka

Ukraine / Sumi District     50°29′50″N   35°27′15″E
temp.,
°C
wind,
m/s
gust,
m/s
humid.,
%
clouds,
%
prec.,
mm/h
press.,
hPa
HPBL,
m
25 july, sun
sun2500:00+17ene228316 0.2 101727
03:00+16e227923 0.3 101815
06:00+15ene228020 0.0 101932
09:00+22e345329 0.0 1019514
12:00+26se323726 0.0 10191738
15:00+29se213043 0.0 10192600
18:00+28ese2232100 0.0 10191935
21:00+23se2244100 0.0 102022
26 july, mon
mon2600:00+18ese46543 0.0 102196
03:00+17ese23575 0.0 102241
06:00+17ese11615 0.0 102313
09:00+24ese34405 0.0 1023524
12:00+28ese33325 0.0 10222182
15:00+29e323299 0.0 10212407
18:00+29e43315 0.0 10212280
21:00+22ese48491 0.0 1022135
27 july, tue
tue2700:00+19ese23495 0.0 102238
03:00+18e33545 0.0 102235
06:00+18e36550 0.0 1023107
09:00+25ese45395 0.0 1022526
12:00+29ese442967 0.0 10212145
15:00+31e332613 0.0 10202881
18:00+30e432653 0.0 10192264
21:00+25e483871 0.0 1019129
28 july, wed
wed2800:00+23se4104395 0.0 1020264
03:00+21se394997 0.0 1019170
06:00+19sse37565 0.0 1019140
09:00+27s573828 0.0 1018563
12:00+31ssw662695 0.0 10162634
15:00+28wnw2438100 0.0 1015803
18:00+25ssw5953100 0.1 1014383
21:00+19s41189100 1.7 1013202
29 july, thu
thu2900:00+19ssw41091100 1.2 1013255
03:00+18sw36915 1.2 1011115
06:00+18wsw23915 0.0 101185
09:00+24wsw226913 0.0 1011442
12:00+30sw344318 0.0 10101625
15:00+31wsw4639100 0.0 10082059
18:00+32w573738 0.0 10072284
21:00+21nw61183100 2.0 1009342